EW9311 Weather Reports


Display with metric or nautical units.
time (UTC)temp
F
wind
direction
speed
MPH
gust
MPH
rain 1hr
in
rain 24hr
in
rain mn
in
humidity
%
barometer
mb
20260903230047 63 0 0.0 0.0 0.00 0.00 0.00 55 1022.2
20260903224542 63 0 0.0 0.0 0.00 0.00 0.00 57 1022.1
20260903223058 62 0 0.0 0.0 0.00 0.00 0.00 56 1022.2
20260903221535 62 0 0.0 0.0 0.00 0.00 0.00 59 1022.6
20260903220038 62 0 0.0 0.0 0.00 0.00 0.00 57 1022.5
20260903214539 61 0 0.0 0.0 0.00 0.00 0.00 59 1022.9
20260903213048 61 0 0.0 0.0 0.00 0.00 0.00 60 1022.7
20260903211541 61 0 0.0 0.0 0.00 0.00 0.00 60 1022.5
20260903210047 60 0 0.0 0.0 0.00 0.00 0.00 60 1022.3
20260903204534 60 0 0.0 0.0 0.00 0.00 0.00 58 1022.4
20260903203037 60 0 0.0 0.0 0.00 0.00 0.00 60 1022.6
20260903201533 58 0 0.0 0.0 0.00 0.00 0.00 61 1022.6
20260903200034 57 0 0.0 0.0 0.00 0.00 0.00 66 1022.5
20260903194543 56 0 0.0 0.0 0.00 0.00 0.00 67 1022.5
20260903193037 56 0 0.0 0.0 0.00 0.00 0.00 67 1022.3
20260903191536 55 0 0.0 0.0 0.00 0.00 0.00 69 1022.4
20260903190035 54 0 0.0 0.0 0.00 0.00 0.00 72 1022.4
20260903184545 54 0 0.0 0.0 0.00 0.00 0.00 73 1022.4
20260903183034 53 0 0.0 0.0 0.00 0.00 0.00 76 1022.7
20260903181538 53 0 0.0 0.0 0.00 0.00 0.00 77 1022.8
20260903180037 53 0 0.0 0.0 0.00 0.00 0.00 74 1022.7
20260903174534 51 0 0.0 0.0 0.00 0.00 0.00 78 1022.4
20260903173035 49 0 0.0 0.0 0.00 0.00 0.00 83 1022.6
20260903171536 48 0 0.0 0.0 0.00 0.00 0.00 86 1022.5
20260903170034 47 0 0.0 0.0 0.00 0.00 0.00 86 1022.2
20260903164533 46 0 0.0 0.0 0.00 0.00 0.00 85 1022.2
20260903163042 46 0 0.0 0.0 0.00 0.00 0.00 84 1022.1
20260903161533 46 0 0.0 0.0 0.00 0.00 0.00 83 1021.9
20260903160042 45 0 0.0 0.0 0.00 0.00 0.00 83 1021.8
20260903154534 44 0 0.0 0.0 0.00 0.00 0.00 83 1022.0
20260903153037 44 0 0.0 0.0 0.00 0.00 0.00 83 1022.0
20260903151536 43 0 0.0 0.0 0.00 0.00 0.00 84 1022.0
20260903150049 43 0 0.0 0.0 0.00 0.00 0.00 86 1022.1
20260903144539 43 0 0.0 0.0 0.00 0.00 0.00 84 1022.0
20260903143053 44 0 0.0 0.0 0.00 0.00 0.00 83 1021.9
20260903141536 44 0 0.0 0.0 0.00 0.00 0.00 81 1021.6
20260903140041 44 0 0.0 0.0 0.00 0.00 0.00 80 1021.8
20260903134543 44 0 0.0 0.0 0.00 0.00 0.00 80 1021.6
20260903133034 43 0 0.0 0.0 0.00 0.00 0.00 82 1022.0
20260903131536 43 0 0.0 0.0 0.00 0.00 0.00 80 1021.6
20260903130043 43 0 0.0 0.0 0.00 0.00 0.00 81 1021.5
20260903124533 42 0 0.0 0.0 0.00 0.00 0.00 83 1021.5
20260903123042 41 0 0.0 0.0 0.00 0.00 0.00 84 1021.6
20260903121552 42 0 0.0 0.0 0.00 0.00 0.00 84 1021.5
20260903120033 43 0 0.0 0.0 0.00 0.00 0.00 82 1021.4
20260903114534 41 0 0.0 0.0 0.00 0.00 0.00 86 1021.3
20260903113035 42 0 0.0 0.0 0.00 0.00 0.00 83 1021.3
20260903111533 44 0 0.0 0.0 0.00 0.00 0.00 80 1021.3
20260903110035 44 0 0.0 0.0 0.00 0.00 0.00 80 1021.2
20260903104548 44 0 0.0 0.0 0.00 0.00 0.00 80 1021.2
20260903103038 45 0 0.0 0.0 0.00 0.00 0.00 78 1020.9
20260903101544 46 0 0.0 0.0 0.00 0.00 0.00 77 1020.8
20260903100041 46 0 0.0 0.0 0.00 0.00 0.00 75 1020.8
20260903094534 46 0 0.0 0.0 0.00 0.00 0.00 76 1020.7
20260903093036 46 0 0.0 0.0 0.00 0.00 0.00 76 1020.5
20260903091550 45 0 0.0 0.0 0.00 0.00 0.00 77 1020.4
20260903090035 46 0 0.0 0.0 0.00 0.00 0.00 77 1020.6
20260903084535 46 0 0.0 0.0 0.00 0.00 0.00 77 1020.5
20260903083034 46 0 0.0 0.0 0.00 0.00 0.00 77 1020.4
20260903081537 46 0 0.0 0.0 0.00 0.00 0.00 76 1020.3
20260903080041 47 0 0.0 0.0 0.00 0.00 0.00 76 1020.3
20260903074538 46 0 0.0 0.0 0.00 0.00 0.00 77 1020.0
20260903073037 46 0 0.0 0.0 0.00 0.00 0.00 78 1020.1
20260903071537 46 0 0.0 0.0 0.00 0.00 0.00 80 1019.8
20260903070034 46 0 0.0 0.0 0.00 0.00 0.00 80 1019.7
20260903064534 46 0 0.0 0.0 0.00 0.00 0.00 80 1019.6
20260903063036 46 0 0.0 0.0 0.00 0.00 0.00 80 1019.4
20260903061536 47 0 0.0 0.0 0.00 0.00 0.00 80 1019.4
20260903060044 47 0 0.0 0.0 0.00 0.00 0.00 81 1019.4
20260903054535 48 0 0.0 0.0 0.00 0.00 0.00 80 1018.9
20260903053038 49 0 0.0 0.0 0.00 0.00 0.00 79 1018.9
20260903051538 50 0 0.0 0.0 0.00 0.00 0.00 78 1018.6
20260903050043 51 0 0.0 0.0 0.00 0.00 0.00 75 1018.4
20260903044533 53 0 0.0 0.0 0.00 0.00 0.00 72 1018.3
20260903043033 55 0 0.0 0.0 0.00 0.00 0.00 68 1018.2
20260903041537 57 0 0.0 0.0 0.00 0.00 0.00 60 1018.0
20260903040035 58 0 0.0 0.0 0.00 0.00 0.00 58 1017.8
20260903034536 58 0 0.0 0.0 0.00 0.00 0.00 57 1017.8
20260903033035 58 0 0.0 1.0 0.00 0.00 0.00 56 1017.9
20260903031540 60 0 0.0 1.0 0.00 0.00 0.00 53 1017.6
20260903030046 59 0 0.0 1.0 0.00 0.00 0.00 54 1017.4
20260903024536 59 0 0.0 0.0 0.00 0.00 0.00 53 1017.3
20260903023034 60 0 0.0 2.0 0.00 0.00 0.00 55 1017.3
20260903021542 60 0 0.0 1.0 0.00 0.00 0.00 53 1017.4
20260903020037 60 0 0.0 0.0 0.00 0.00 0.00 53 1017.3
20260903014542 60 0 0.0 0.0 0.00 0.00 0.00 54 1017.1
20260903013037 60 0 0.0 0.0 0.00 0.00 0.00 55 1017.1
20260903011546 60 0 0.0 3.0 0.00 0.00 0.00 46 1017.0
20260903010035 60 0 0.0 0.0 0.00 0.00 0.00 47 1017.0
20260903004538 60 0 0.0 5.0 0.00 0.00 0.00 47 1016.8
20260903003036 60 0 0.0 0.0 0.00 0.00 0.00 47 1016.9
20260903001533 60 0 0.0 1.0 0.00 0.00 0.00 49 1016.8
20260903000045 59 0 0.0 0.0 0.00 0.00 0.00 47 1016.5
20260902234534 59 0 0.0 3.0 0.00 0.00 0.00 46 1016.5
20260902233046 58 0 0.0 12.0 0.00 0.00 0.00 47 1016.5
20260902231535 58 0 0.0 2.0 0.00 0.00 0.00 46 1016.2